OneWeb SL0011

operational
NORAD ID: 44062 Int'l Des: 2019-010 Owner: ONEWEB Country: UK Constellation: oneweb
LEOCIRCULARPOLARONEWEB_TYPE

关于 OneWeb SL0011

正在加载描述...

实时位置

正在加载3D地球...

即将过境

高度历史

Altitude vs Time

uPlot chart will show altitude changes over time

两行轨道根数

1 44062U 19010F 25306.43229617 .00000060 00000-0 12440-3 0 9997
2 44062 87.8957 304.4345 0002051 86.7762 273.3603 13.15549445321606
Epoch: Nov 2, 2025 • Age: 27 hours

当前状态

高度 1228.4 km
速度 7.24 km/s
星下点 -66.16°S, 111.75°W
发射日期 Feb 27, 2019
运行时间 6.6 years
类型 internet

技术详情

分类 Payload
质量 148.00 kg
干质量 140.00 kg
总质量 148.00 kg
长度 1.30 m
直径 1.00 m
跨度 5.00 m
形状 Trapezoid+2 pan
制造商 ADST
平台类型 ARROW
阶段状态 In Orbit
所有者/国家 ONEWEB/UK

大型星座

Loading constellations...